SCP
0 0 0 0 -0 -0 -0 -0 -0 -0 -0 -0 -0 -0 0 0 0 0 0 0 0 0 0 0 0 0 0 0 0 0 0 0 0 0 0 0 0 0 0 0 0 0 -0 -0 -0 0 0 0 0
0 0 0 0 -0 -0 -0 -0 -0 -0 -0 -0 -0 -0 -0 -0 0 0 0 0 0 0 0 0 0 0 0 0 0 0 0 0 0 0 0 0 0 0 0 0 0 0 0 0 0 0 0 0 0
0 0 0 0 -0 -0 -0 -0 -0 -0 -0 -0 -0 -0 -0 -0 0 0 0 0 0 0 0 0 0 0 0 0 0 0 0 0 0 0 0 0 0 0 0 0 0 0 0 0 0 0 0 0 0
0 0 0 0 -0 -0 -0 -0 -0 -0 -0 -0 -0 -0 -0 -0 0 0 0 0 0 0 0 0 0 0 0 0 0 0 0 0 0 0 0 0 0 0 0 0 0 0 0 0 0 0 0 0 0
0 0 0 0 -0 -0 -0 -0 -0 -0 -0 -0 -0 -0 -0 -0 0 0 0 0 0 0 0 0 0 0 0 0 0 0 0 0 0 0 0 0 0 0 0 0 0 0 0 0 0 0 0 0 0
0 0 0 -0 -0 -0 -0 -0 -0 -0 -0 -0 -0 -0 -0 -0 0 0 0 0 0 0 0 1 1 0 0 0 0 0 0 0 0 0 0 0 0 0 0 0 0 0 0 0 0 0 0 0 0
0 0 0 0 0 -0 -0 -0 -0 -0 -0 -0 -0 -0 -0 -0 0 0 0 0 0 0 0 1 0 0 0 0 0 0 0 0 0 0 0 0 0 0 0 0 0 0 0 0 -0 -0 0 0 0
0 0 0 0 0 -0 -0 -0 -0 -0 -0 -0 -0 -0 -0 0 0 0 0 0 0 0 0 0 0 0 1 1 1 1 0 0 0 0 0 0 0 0 0 0 0 0 0 -0 -0 -0 -0 0 0
0 0 0 0 0 0 0 0 0 0 0 -0 -0 -0 0 0 0 0 0 0 0 0 0 1 1 1 1 1 1 1 1 1 1 1 1 1 1 1 0 0 0 0 0 0 -0 -0 -0 -0 0
0 0 0 0 0 0 0 0 0 0 0 0 0 0 0 0 0 0 0 0 0 0 0 1 1 1 1 1 1 1 1 1 1 1 1 1 1 1 1 1 1 1 0 0 0 -0 -0 -0 0
0 0 0 0 0 0 0 0 0 0 0 0 0 0 1 1 1 1 1 0 0 0 0 1 1 1 2 2 2 2 2 2 2 2 2 2 1 1 1 1 1 1 1 1 0 0 0 0 0
0 0 0 0 0 0 0 0 0 0 0 0 0 1 1 1 1 1 1 1 0 0 0 0 1 1 1 2 2 2 2 2 2 2 2 2 2 2 1 1 2 2 1 1 1 0 0 0 0
0 0 0 0 0 0 0 0 0 0 0 0 1 1 1 1 1 1 1 1 1 1 0 0 1 1 1 1 1 1 2 2 2 2 2 2 2 2 2 1 1 1 1 1 1 1 1 1 1
0 0 0 0 0 0 0 0 0 0 0 1 1 2 2 2 2 2 2 1 1 1 1 1 1 1 1 1 1 1 1 1 1 1 2 2 2 2 2 1 1 1 1 1 0 0 1 1 1
0 0 0 0 0 0 0 0 0 1 1 2 2 2 2 2 2 2 2 2 2 2 1 1 1 1 1 1 1 1 1 1 1 1 1 1 1 1 1 1 1 1 1 0 0 0 1 1 1
0 0 0 0 0 0 0 0 1 2 3 3 3 3 3 2 2 2 2 2 2 2 2 1 1 1 1 1 1 1 1 1 1 1 1 1 1 1 1 1 1 1 1 1 1 0 1 1 1
0 0 0 0 0 0 0 1 2 3 3 4 4 3 2 2 2 2 2 2 2 2 1 1 1 1 1 1 1 1 1 1 1 1 1 1 1 1 1 1 1 1 1 1 1 1 1 1 1
0 0 0 0 0 0 0 1 2 2 3 3 3 2 2 2 2 2 2 2 1 1 1 1 1 1 1 1 1 1 1 1 0 0 0 0 1 1 1 1 1 1 1 1 1 1 1 1 1
0 0 0 0 0 0 0 1 1 2 2 2 2 2 2 1 1 1 1 1 1 1 1 1 1 1 1 1 0 0 0 0 0 0 0 0 1 1 1 1 1 1 1 1 1 1 1 1 1
0 0 0 0 0 0 0 0 1 1 1 2 2 2 1 1 1 0 -0 0 0 0 1 1 1 1 1 1 1 1 1 0 0 0 0 0 0 0 0 0 0 0 1 1 1 1 1 1 1
0 0 0 0 -0 0 0 0 0 1 1 2 2 2 1 1 0 -0 -0 -0 -0 0 0 0 0 0 0 1 1 1 0 0 0 0 0 0 0 0 0 0 0 0 0 1 1 1 1 1 1
0 0 0 0 0 0 0 0 0 1 1 2 2 1 1 0 -0 -0 -0 -0 -0 -0 0 0 0 0 0 1 1 1 0 0 0 0 0 0 0 0 0 0 0 0 0 0 1 1 1 1 1
0 0 0 0 0 0 0 0 0 0 1 1 1 1 0 0 -0 -0 -0 -0 -0 -0 0 0 0 0 0 0 0 0 0 0 0 0 0 0 0 0 0 0 0 0 0 0 1 1 1 1 1
0 0 0 0 0 0 0 0 0 0 0 0 0 0 0 -0 -0 -0 -0 -0 -0 0 0 0 0 0 0 0 0 0 0 0 0 0 0 0 0 0 0 0 0 0 0 0 0 1 1 1 1
0 0 0 0 0 0 0 0 0 0 0 0 0 -0 -0 -0 -0 -0 -0 -0 0 0 0 0 0 0 0 0 0 0 0 0 0 0 0 0 0 0 0 0 0 0 0 0 0 0 0 0 1
0 0 0 0 0 0 0 0 0 0 0 0 -0 -0 -0 -0 -0 -0 -0 -0 0 0 0 0 0 0 0 0 0 0 0 0 0 0 0 0 0 0 0 0 0 0 0 0 0 0 0 0 0
0 0 0 0 0 0 0 0 0 0 -0 -0 -0 -0 -0 0 0 -0 -0 -0 -0 -0 -0 0 0 0 0 0 0 0 0 0 0 0 0 0 0 0 0 0 -0 -0 0 0 0 0 0 0 0
0 0 0 0 0 0 0 0 0 0 -0 -0 -0 -0 -0 0 0 -0 -0 -0 -0 0 0 0 0 0 0 0 0 0 0 0 0 0 0 0 0 0 0 0 -0 -0 0 0 0 0 0 0 0
0 0 0 0 0 0 0 0 0 0 0 0 0 0 0 0 0 0 0 0 0 0 0 0 0 0 0 0 0 0 0 0 0 0 0 0 0 0 0 -0 -0 -0 0 0 0 0 0 0 0
0 0 0 0 0 0 0 0 0 0 0 0 0 0 0 0 0 0 0 0 0 0 0 0 0 0 0 0 0 0 0 0 0 0 0 0 0 0 0 -0 -0 -0 0 0 0 0 0 0 0
Wind_Speed
3 3 2 2 2 2 1 1 2 4 2 2 2 3 6 3 2 2 1 5 12 12 11 14 16 16 15 15 14 14 14 15 15 14 12 11 11 10 9 9 9 8 8 8 8 8 7 7 7
1 2 2 1 3 3 3 2 3 3 3 3 3 3 4 1 1 4 3 6 12 12 9 9 14 15 15 15 15 15 16 16 15 14 13 11 10 9 9 8 8 7 7 7 7 7 7 7 6
3 2 2 2 3 1 2 3 3 2 4 3 2 2 2 1 2 6 5 11 11 10 9 10 16 16 15 15 15 15 15 16 15 14 13 12 10 9 9 8 7 7 6 6 6 6 6 7 7
2 1 2 3 0 3 4 4 4 2 2 1 3 3 3 1 4 6 11 12 12 9 7 10 16 15 14 14 14 14 14 14 14 13 11 11 10 9 9 8 7 7 6 6 6 6 6 6 7
3 3 4 2 3 3 4 2 4 1 0 2 2 3 2 3 7 10 11 12 11 9 6 9 15 14 14 13 13 14 13 13 12 11 10 9 9 9 8 8 8 8 8 7 8 8 8 8 8
3 4 3 2 5 4 3 3 1 3 2 0 3 4 1 1 6 9 10 9 9 9 6 5 13 15 14 13 14 14 13 12 11 11 10 9 8 9 9 9 9 10 9 9 10 10 10 10 9
3 3 1 2 4 4 3 1 0 1 2 2 3 3 1 3 6 9 9 7 7 7 6 4 6 9 13 12 11 11 11 11 10 10 10 10 10 10 11 11 11 12 12 12 12 12 12 11 10
4 4 1 2 3 3 3 0 1 2 0 3 1 1 3 5 10 9 9 7 6 5 5 4 4 4 4 6 10 11 10 10 11 11 11 11 11 11 11 11 11 13 13 14 14 14 13 12 11
3 4 2 3 1 2 2 3 1 2 1 2 2 1 3 13 12 10 9 6 5 5 5 5 4 3 3 3 7 10 11 12 11 11 12 11 5 5 7 9 12 14 14 15 14 14 14 13 11
3 3 6 5 3 2 3 5 3 3 2 4 2 4 11 15 12 11 11 10 10 10 8 7 6 6 5 3 3 3 5 6 6 6 6 4 4 5 7 9 13 14 15 15 15 15 15 12 6
3 4 4 6 5 4 3 4 3 4 5 8 7 10 14 14 12 11 10 11 11 10 9 9 7 6 5 4 3 2 3 3 4 6 6 4 3 3 4 3 6 7 9 7 7 8 8 7 6
2 7 5 8 5 2 3 3 4 7 6 3 9 15 15 15 12 10 10 9 9 10 11 9 7 6 5 4 2 2 2 3 4 4 5 4 3 3 4 4 5 4 4 4 4 4 6 7 8
4 5 6 8 8 5 2 4 5 5 2 4 13 14 12 10 8 7 7 8 9 9 9 9 9 8 7 5 4 4 5 5 5 4 5 7 6 6 6 6 5 4 3 4 6 7 7 7 8
4 5 7 6 6 4 3 2 2 2 3 7 10 9 8 8 8 7 7 8 8 9 9 9 10 10 9 8 8 5 3 3 3 4 7 8 7 7 7 8 6 5 4 6 8 9 9 8 7
2 5 7 4 3 5 4 2 2 3 6 8 7 7 7 5 6 5 6 7 9 8 6 7 6 6 6 6 5 4 3 3 4 5 6 7 8 9 9 9 7 5 1 6 10 11 9 7 5
2 2 4 5 5 4 3 5 0 5 9 9 8 9 9 6 5 3 5 7 9 6 6 6 5 5 7 7 5 4 4 4 5 5 6 8 9 10 9 7 7 6 8 10 9 8 7 4 3
4 2 3 6 5 3 1 2 3 5 9 10 9 8 7 5 4 3 2 4 6 6 6 4 4 6 6 6 4 4 5 6 5 4 5 6 8 9 7 7 7 7 6 8 9 10 8 6 7
1 1 3 4 6 6 4 4 4 3 8 10 9 7 4 5 2 2 3 3 4 5 5 6 6 6 5 5 4 4 4 4 4 5 5 5 5 5 5 5 6 6 5 6 7 9 9 9 10
2 2 2 4 5 5 6 5 2 2 6 8 7 5 5 3 0 0 0 1 2 3 3 4 4 5 5 3 2 2 3 1 1 2 4 4 4 4 4 4 5 5 5 6 6 6 7 7 6
1 0 3 4 7 4 2 2 3 2 2 6 8 7 5 3 4 4 3 3 3 2 2 2 3 3 2 2 2 2 1 1 2 2 3 3 4 5 5 5 5 6 6 7 7 7 5 5 6
0 1 2 3 6 4 2 4 4 2 1 3 5 6 5 7 8 6 6 5 5 5 5 4 5 4 4 3 2 1 1 1 2 2 3 3 4 5 5 6 7 7 7 7 8 8 9 7 6
2 3 2 3 2 3 1 4 6 3 4 6 7 6 7 8 8 7 8 7 7 7 6 6 5 5 4 3 3 3 2 2 2 1 3 5 6 7 7 8 8 8 7 8 9 10 9 9 7
3 1 2 2 0 3 2 1 5 1 5 8 8 9 11 12 10 9 9 7 5 6 6 5 4 5 4 3 3 3 2 2 1 1 4 5 5 6 7 8 8 9 8 8 10 10 9 8 8
2 3 5 4 3 2 2 0 6 5 8 6 6 9 14 13 8 9 8 5 4 5 6 5 5 6 5 5 5 5 5 3 2 3 4 4 4 5 7 7 7 9 8 8 9 9 9 8 8
5 5 5 7 5 3 2 1 8 8 8 8 12 14 15 8 7 8 9 8 5 6 7 5 5 7 6 4 4 5 5 4 2 3 4 4 5 6 8 7 8 8 8 8 8 8 8 8 9
1 5 4 2 3 5 2 4 6 5 5 5 7 7 4 4 4 7 8 7 7 8 8 6 6 8 5 3 4 5 5 3 2 3 4 4 4 5 7 8 9 10 8 7 7 7 7 6 7
1 2 3 4 0 3 4 5 8 5 4 4 3 5 9 9 8 9 10 8 8 8 7 6 7 6 4 4 4 4 4 3 3 4 4 3 3 5 7 9 10 11 10 8 7 6 8 6 7
2 3 2 0 1 3 4 3 5 14 14 9 10 12 12 12 12 12 11 9 7 7 7 6 5 3 2 4 5 5 5 5 4 4 4 3 3 4 6 8 10 11 10 9 7 6 7 6 5
1 2 3 1 1 3 4 4 3 10 11 6 11 10 9 10 11 13 15 16 13 11 10 9 7 6 4 4 5 6 5 5 4 5 5 4 4 4 6 7 9 10 10 9 7 4 4 3 3
2 3 4 2 3 2 3 4 4 5 9 11 9 9 9 10 11 12 13 13 14 14 12 12 10 8 6 5 5 6 6 6 6 6 6 4 4 5 6 7 7 9 9 8 8 7 7 5 6
Wind_Direction
154 161 140 124 75 59 21 296 292 310 11 345 84 129 133 134 163 210 136 147 132 143 157 162 162 160 157 155 156 154 150 148 146 145 143 143 145 146 145 142 142 141 138 136 135 136 137 137 140
175 126 83 89 75 49 319 307 304 282 166 152 81 58 59 44 79 121 135 146 139 140 146 156 159 158 158 158 162 161 159 157 156 155 155 153 151 152 154 155 154 153 153 153 155 156 156 156 159
186 158 97 67 76 151 264 270 271 275 203 199 108 57 65 23 107 152 149 138 133 136 142 157 162 161 164 164 164 165 165 163 163 164 164 163 164 167 169 168 169 171 172 174 176 179 179 179 183
150 84 33 62 177 217 213 258 264 204 272 30 101 63 39 30 147 148 134 136 132 132 135 158 161 163 166 166 168 170 170 169 168 169 170 173 177 184 187 186 186 190 192 199 204 206 207 208 208
59 68 42 22 271 226 235 239 288 242 327 17 73 93 42 17 99 120 134 139 140 132 128 157 159 163 166 170 175 180 179 175 176 177 179 185 192 201 207 208 207 208 210 216 222 225 228 232 234
47 56 53 335 291 280 255 180 312 298 83 119 101 109 137 93 121 133 137 139 140 137 131 148 164 168 171 175 180 185 186 183 184 188 190 197 207 214 217 220 224 223 222 227 234 238 240 241 243
85 79 173 248 282 296 269 126 34 327 46 337 129 117 228 197 149 138 127 125 125 125 120 127 161 176 177 180 184 190 193 191 192 196 199 206 216 224 224 219 226 232 235 238 242 245 245 243 242
113 95 318 275 296 331 297 208 152 129 251 304 336 175 224 171 139 124 111 110 111 111 110 112 135 163 165 178 190 196 202 203 204 206 212 217 222 230 228 222 229 237 242 246 248 250 252 248 240
100 82 258 235 219 355 344 300 201 132 146 276 277 264 143 129 131 122 116 118 130 143 133 120 121 123 146 165 200 203 209 212 213 215 221 225 221 233 236 233 233 242 248 250 248 250 250 249 247
102 155 224 218 192 167 266 260 207 163 195 242 247 82 121 132 144 147 152 155 168 182 179 166 159 156 154 169 189 199 210 209 207 208 213 213 206 222 236 241 243 244 248 252 253 251 254 253 250
167 225 247 255 217 182 246 253 176 160 225 221 186 150 143 149 162 164 164 169 179 184 191 192 179 175 172 179 181 197 198 204 205 205 202 203 210 230 244 242 244 246 252 254 257 259 256 247 240
235 264 267 286 302 188 201 187 185 197 241 227 154 154 157 168 172 170 171 173 177 184 195 196 190 184 184 180 192 220 215 214 218 209 202 204 215 226 240 240 233 230 240 253 262 256 248 243 243
228 269 266 266 290 274 229 208 200 220 310 125 139 152 161 164 165 174 177 181 183 192 199 197 191 195 192 194 202 207 217 223 225 211 207 211 218 223 230 238 232 233 244 244 253 258 251 244 242
239 269 276 270 258 252 217 205 196 234 127 131 141 145 145 149 150 153 171 185 190 200 204 195 196 198 196 203 211 215 228 254 258 240 232 225 224 222 216 230 225 228 245 276 278 265 254 247 243
283 303 313 299 284 243 188 209 208 115 122 121 113 110 101 100 118 140 164 185 198 203 200 205 199 198 208 220 230 214 214 211 228 233 240 231 227 230 232 233 229 218 192 293 284 274 259 240 237
352 21 344 316 343 313 167 243 103 112 119 109 93 84 76 70 90 136 180 187 196 192 195 209 195 201 211 215 215 212 218 228 239 238 243 245 247 243 241 245 248 231 212 215 230 249 249 232 235
13 3 323 309 348 332 116 239 93 102 104 91 83 89 109 119 118 121 157 179 178 186 189 192 205 218 213 221 221 215 219 228 238 242 246 251 251 250 245 252 259 257 230 208 211 226 216 203 219
234 350 301 298 331 15 40 76 73 75 105 103 104 115 150 129 93 68 90 113 131 142 147 164 206 207 192 200 215 225 240 237 230 241 249 253 255 249 250 254 262 268 255 231 216 228 213 206 213
196 231 258 287 315 39 44 60 8 59 95 105 112 142 162 127 171 245 129 150 116 109 135 161 188 181 173 181 199 232 250 259 240 246 262 284 305 302 288 279 277 276 267 261 240 232 228 222 206
183 326 322 313 341 36 65 49 305 262 175 155 159 180 183 169 210 225 233 225 204 203 198 203 227 209 206 194 204 215 226 254 262 288 305 335 328 311 302 290 288 280 275 267 252 235 232 221 188
263 187 274 303 337 6 32 329 305 287 228 139 177 196 191 203 211 217 223 226 227 227 229 234 234 230 230 217 215 250 311 329 331 317 319 326 317 307 301 299 295 286 273 263 255 241 232 239 217
298 231 247 292 340 303 1 282 285 276 275 203 198 207 218 232 229 221 221 221 219 222 222 229 227 229 231 214 219 219 210 223 231 279 313 316 327 325 322 314 305 292 281 273 262 246 235 233 233
270 59 38 359 354 291 333 269 275 309 265 230 212 210 221 227 221 222 228 229 226 228 228 232 244 260 268 261 237 219 226 240 276 324 316 313 315 312 312 314 301 294 285 278 269 255 241 235 233
27 59 38 34 48 304 293 252 275 207 216 222 223 223 225 229 224 235 242 242 235 236 238 227 232 255 253 242 226 207 218 222 252 316 313 309 307 309 308 307 311 307 298 294 289 272 254 245 239
49 46 7 355 358 276 277 237 257 242 226 208 212 222 230 232 239 248 254 255 254 257 250 233 222 252 250 236 209 194 188 181 221 291 294 301 311 321 319 319 316 310 300 292 290 286 271 255 247
83 125 154 226 266 295 283 239 258 253 263 239 229 237 254 273 290 285 279 284 274 264 256 239 226 242 246 227 198 171 164 174 205 254 260 271 287 299 303 308 303 293 290 289 291 286 275 265 254
183 160 150 136 213 292 281 294 305 328 293 266 294 4 17 6 356 340 326 314 295 280 271 240 230 235 234 225 202 180 189 200 224 251 251 258 280 296 305 311 310 303 297 291 291 283 278 269 257
114 131 113 82 186 272 284 279 281 326 315 339 34 44 38 32 27 15 5 351 334 340 339 334 320 294 265 220 208 204 205 215 232 256 271 278 284 295 307 317 319 319 318 317 306 288 284 276 269
7 43 73 126 155 208 258 275 343 316 317 29 63 54 39 36 27 22 19 18 18 25 20 3 351 344 310 262 229 219 212 218 232 248 262 270 284 297 311 320 323 328 335 348 351 350 321 294 322
175 137 124 118 271 195 213 265 31 23 52 68 59 37 23 22 19 18 13 13 17 17 12 6 357 340 310 281 254 242 226 218 228 245 261 270 281 302 310 316 332 338 345 360 14 34 37 19 28